Location: Springville
(37.3745°N, 89.2676°W)
Time: 13:52:28
(UTC+00:00)

Cosmos 1340 - Pass Details

Date: 29 October 2020
Orbit: 501 x 504 km, 81.2° (Epoch: 03 December)

Event Time Altitude Azimuth Distance (km) Brightness Sun altitude
Rises 23:42:07 0° 356° (N) 2,612 6.2 -8.6°
Reaches altitude 10° 23:44:18 10° 2° (N) 1,723 5.2 -9.1°
Maximum altitude 23:48:00 52° 79° (E) 635 2.8 -9.8°
Drops below altitude 10° 23:51:40 10° 157° (SSE) 1,710 5.2 -10.5°
Sets 23:53:49 0° 162° (SSE) 2,590 6.2 -10.9°
